Regional Weather Roundup
Issued by NWS Little Rock, AR

Home | Current Version | Previous Version | Graphics & Text | Print | Product List | Glossary On
Versions: 1 2 3 4 5 6 7 8 9 10 11 12 13 14 15 16 17 18 19 20 21 22 23 24 25 26 27 28 29 30 31 32 33 34 35 36 37 38 39 40 41 42 43 44 45 46 47 48 49 50
000
ASUS44 KLZK 280405
RWRLZK

WEATHER ROUNDUP FOR ARKANSAS
NATIONAL WEATHER SERVICE LITTLE ROCK AR
1100 PM CDT MON JUL 27 2015

NOTE: "FAIR" INDICATES FEW OR NO CLOUDS BELOW 12,000 FEET WITH NO
SIGNIFICANT WEATHER AND/OR OBSTRUCTIONS TO VISIBILITY.

ARZ001-003-010-029-280500-
NORTHWEST ARKANSAS

CITY           SKY/WX    TMP DP  RH WIND       PRES   REMARKS
FAYETTEVILLE   CLEAR     78  77  96 S3        29.98R
FORT SMITH     CLEAR     86  71  60 CALM      29.93R HX  91
HARRISON       CLEAR     79  76  90 SE5       29.99S
BENTONVILLE    CLEAR     82  72  69 SE6       29.98S HX  87
ROGERS         CLEAR     82  76  81 SE6       29.99R HX  89
SILOAM SPGS    CLEAR     81  72  74 SE7       29.95S
HIGHFILL       CLEAR     83  76  79 CALM      29.97R HX  91
$$

ARZ004-005-016-280500-
NORTH CENTRAL ARKANSAS

CITY           SKY/WX    TMP DP  RH WIND       PRES   REMARKS
BATESVILLE     CLEAR     82  72  69 S5        29.95S HX  87
FLIPPIN        CLEAR     79  72  78 NE3       29.95S
MTN HOME       CLEAR     78  73  84 E3        29.97R
$$

ARZ040-041-280500-
WEST CENTRAL ARKANSAS

CITY           SKY/WX    TMP DP  RH WIND       PRES   REMARKS
MENA           CLEAR     79  72  78 CALM      29.99R
MOUNT IDA      CLEAR     80  73  79 CALM      29.95R
$$

ARZ009-017-025-026-028-280500-
NORTHEAST ARKANSAS

CITY           SKY/WX    TMP DP  RH WIND       PRES   REMARKS
JONESBORO      PTCLDY    80  77  90 CALM      29.94S HX  87
NEWPORT        PTCLDY    83  80  90 CALM      29.95S HX  95
WALNUT RIDGE   PTCLDY    81  75  83 CALM      29.95R HX  86
BLYTHEVILLE    CLEAR     82  80  94 SE3       29.96R HX  94
$$

ARZ022-023-033-042-044-280500-
CENTRAL ARKANSAS

CITY           SKY/WX    TMP DP  RH WIND       PRES   REMARKS
LITTLE ROCK    PTCLDY    85  76  74 S5        29.94R HX  94
N LITTLE ROCK  PTCLDY    86  77  74 S2        29.94R HX  97
JACKSONVILLE   CLEAR     83  76  79 E1        29.94R HX  90
SEARCY         CLEAR     79  77  94 CALM      29.96R
HOT SPRINGS    CLEAR     84  73  69 CALM      29.96R HX  90
RUSSELLVILLE   CLEAR     81  76  84 CALM      29.94R HX  87
CLINTON        FAIR      77  77 100 CALM      29.97S FOG
$$

ARZ036-280500-
EAST ARKANSAS

CITY           SKY/WX    TMP DP  RH WIND       PRES   REMARKS
WEST MEMPHIS   CLEAR     81  79  94 CALM      29.94S HX  90
$$

ARZ050-053-066-070-073-280500-
SOUTHWEST ARKANSAS

CITY           SKY/WX    TMP DP  RH WIND       PRES   REMARKS
ARKADELPHIA    FAIR      81  80  96 CALM      29.94R HX  91
CAMDEN         CLEAR     81  75  83 CALM      29.94R HX  86
TEXARKANA      CLEAR     85  71  63 SE5       29.94R HX  90
EL DORADO      CLEAR     83  75  77 CALM      29.95R HX  90
DE QUEEN       CLEAR     78  76  93 CALM      29.92R
$$

ARZ056-057-069-280500-
SOUTHEAST ARKANSAS

CITY           SKY/WX    TMP DP  RH WIND       PRES   REMARKS
PINE BLUFF     CLEAR     83  78  85 CALM      29.95R HX  93
STUTTGART      CLEAR     84  75  74 SE5       29.95R HX  92
MONTICELLO     CLEAR     84  76  76 S5        29.95R HX  93

$$




USA.gov is the U.S. government's official web portal to all federal, state and local government web resources and services.